www.pogodaiklimat.ru

Погода и климат >> Архив погоды >> Австрия >> Грац


ПОГОДА в Граце

  • Прогноз погоды в Граце
  • Монитор погоды в Граце

АРХИВ ПОГОДЫ в Граце

Время (UTC), дата Ветер
(напр.,м/с)
 
Видим.   Явления Облачность Т
(С)
Тd
(С)
f
(%)
Тe
(С)
Тes
(С)
Комфортность P
(гПа)
Po
(гПа)
Тmin
(С)
Tmax
(С)
R
(мм)
R24
(мм)
S
(см)
01 16.09 2400 м дымка 4/4 60 м
[]
+11.8 +11.2 96 1020.9 977.9
02 16.09 6000 м 4/4 30 м
[]
+12.2 +11.8 97 1020.7 977.7
03 16.09 С 1 300 м туман местами 5/5 30 м
[]
+12.1 +11.7 97 +12 +12 1020.5 977.5
04 16.09 200 м туман ?/? +11.8 +11.6 99 1020.6 977.6
05 16.09 100 м туман ?/? +11.7 +11.6 99 1020.6 977.6
06 16.09 С 1 100 м туман местами 1/1 1500 м
[]
+12.5 +12.5 100 +12 +13 1020.5 977.6 +11.2
07 16.09 16 км 1/1 60 м
[]
+15.5 +15.0 97 1020.2 977.8
08 16.09 29 км 1/1 1500 м
[]
+18.9 +14.8 77 1019.5 977.6
09 16.09 26 км 1/1 1500 м
[]
+21.6 +15.6 69 1019.0 977.5
10 16.09 45 км 1/0 2000 м
[]
+24.1 +14.9 56 1018.1 977.0
11 16.09 Ю 3 40 км 1/0 2000 м
[]
+25.3 +13.6 48 +27 +36 жарко 1017.3 976.4
12 16.09 Ю 3 40 км 1/0 2000 м
[]
+26.2 +13.9 47 +28 +36 жарко 1016.4 975.6
13 16.09 Ю 4 60 км 4/0 2000 м
[]
+26.6 +14.0 46 +29 +33 жарко 1015.4 974.7
14 16.09 ЮВ 4 60 км 5/0 2000 м
[]
+26.4 +13.9 46 +29 +31 жарко 1014.8 974.1
15 16.09 ЮВ 4 60 км 6/0 2000 м
[]
+26.1 +14.7 49 +29 +30 жарко 1014.4 973.7
16 16.09 55 км 6/0 2000 м
[]
+24.8 +15.8 57 1014.5 973.6
17 16.09 50 км 6/0 2000 м
[]
+23.4 +16.1 64 1014.3 973.3
18 16.09 35 км 6/0 2000 м
[]
+21.7 +15.5 68 1014.8 973.5 +27.1
19 16.09 28 км 6/0 2000 м
[]
+20.4 +16.0 76 1015.2 973.7
20 16.09 35 км 9/0 2000 м
[]
+19.3 +16.0 81 1015.3 973.7
21 16.09 штиль 0 40 км 9/0 2000 м
[]
+18.6 +15.8 84 +19 +19 1015.4 973.7
22 16.09 40 км 9/0
[]
+17.9 +16.2 90 1015.2 973.4
23 16.09 35 км 10/0
[]
+17.5 +15.7 89 1015.2 973.3
00 17.09 С 1 35 км 9/0 2000 м
[]
+16.6 +15.0 90 +17 +17 1015.5 973.5
01 17.09 20 км слаб. дождь 10/10 840 м
[]
+17.5 +15.5 88 1015.0 973.1 0.1
02 17.09 30 км 10/0
[]
+17.6 +15.3 86 1014.8 972.9 0.0
03 17.09 С 1 30 км 10/10 1260 м
[]
+17.1 +15.5 90 +18 +18 1014.7 972.8 0.0
04 17.09 30 км 8/0
[]
+16.2 +15.0 93 1014.9 972.8
05 17.09 28 км 8/0
[]
+16.7 +15.5 93 1014.9 972.9
06 17.09 С 1 23 км 9/9 1500 м
[]
+17.4 +16.1 92 +18 +19 1015.1 973.2 +15.9 0.1
07 17.09 35 км 9/9 1500 м
[]
+18.8 +16.0 84 1015.2 973.5
08 17.09 35 км 9/9 1200 м
[]
+20.5 +16.6 78 1015.2 973.7
09 17.09 С 2 40 км 9/9 1200 м
[]
+21.5 +16.0 71 +25 +26 комфорт 1014.9 973.6
10 17.09 ЮВ 3 50 км 9/9 1200 м
[]
+22.5 +14.7 61 +26 +27 жарко 1014.4 973.2
11 17.09 35 км 9/9 1200 м
[]
+24.4 +15.3 57 1013.7 972.8
12 17.09 Ю 4 45 км 9/9 1350 м
[]
+24.4 +14.7 55 +27 +28 жарко 1013.1 972.2
13 17.09 Ю 3 60 км 6/6 1500 м
[]
+25.1 +15.0 53 +28 +30 жарко 1012.5 971.7
14 17.09 Ю 3 55 км 4/4 1500 м
[]
+24.7 +16.1 59 +28 +31 душно 1011.6 970.9
15 17.09 Ю 4 60 км 3/3 1500 м
[]
+23.9 +16.1 62 +27 +28 жарко 1011.4 970.5
16 17.09 Ю 4 50 км 4/4 1140 м
[]
+22.9 +16.3 66 +27 +28 душно 1011.6 970.6
17 17.09 45 км 4/4 1140 м
[]
+22.6 +16.5 68 1011.5 970.5
18 17.09 С 1 35 км 5/5 1140 м
[]
+20.8 +16.6 77 +25 +25 комфорт 1012.4 971.1 +25.4
19 17.09 40 км 4/4 1140 м
[]
+18.8 +15.8 83 1013.3 971.7
20 17.09 С 3 35 км 3/3 1500 м
[]
+18.4 +16.0 86 +19 +19 1013.9 972.2
21 17.09 С 1 30 км 4/4 1500 м
[]
+17.3 +15.5 89 +18 +18 1014.6 972.7
22 17.09 22 км 10/10 1500 м
[]
+16.6 +15.4 93 1014.9 972.9
23 17.09 16 км 10/10 600 м
[]
+15.6 +14.5 93 1015.3 973.1
00 18.09 С 1 14 км 8/8 360 м
[]
+15.9 +14.8 93 +17 +17 1015.7 973.5
01 18.09 17 км 5/5 360 м
[]
+15.7 +14.5 93 1015.8 973.6
02 18.09 23 км 10/10 240 м
[]
+15.8 +14.6 93 1016.3 974.1
03 18.09 С 2 25 км 8/8 300 м
[]
+16.0 +14.5 91 +16 +16 1016.8 974.6
04 18.09 25 км 1/1 840 м
[]
+15.3 +13.7 90 1017.6 975.3
05 18.09 8000 м 1/1 480 м
[]
+13.2 +12.2 94 1018.7 976.0
06 18.09 С 2 35 км 8/8 400 м
[]
+15.5 +13.3 87 +15 +15 1019.2 976.8 +13.2
07 18.09 Ю 5 30 км 8/8 400 м
[]
+14.4 +11.4 82 +13 +13 1020.4 977.8
08 18.09 Ю 6 50 км 5/5 750 м
[]
+14.6 +9.6 72 +13 +14 1021.7 979.0
09 18.09 Ю 6 60 км 4/4 750 м
[]
+15.0 +8.2 64 +13 +15 1022.1 979.4
10 18.09 ЮВ 6 50 км 4/4 750 м
[]
+15.0 +7.8 62 +13 +16 1022.6 979.9
11 18.09 ЮВ 6 40 км 4/4 900 м
[]
+15.5 +7.1 57 +14 +17 1022.4 979.8
12 18.09 ЮВ 5 45 км 4/4 1050 м
[]
+15.9 +6.9 55 +15 +18 1022.1 979.6
13 18.09 ЮВ 4 55 км 3/3 1050 м
[]
+16.2 +6.9 54 +16 +19 1021.8 979.3
14 18.09 Ю 5 60 км 4/4 1200 м
[]
+16.3 +7.8 57 +15 +17 1021.5 979.1
15 18.09 ЮВ 5 55 км 5/5 1350 м
[]
+15.2 +7.5 60 +14 +15 1021.8 979.2
16 18.09 Ю 4 50 км 9/9 1050 м
[]
+14.1 +7.2 63 +13 +13 1022.2 979.4
17 18.09 Ю 3 50 км 9/9 1110 м
[]
+13.4 +7.2 66 +12 +12 1022.5 979.6
18 18.09 С 2 55 км 10/10 1140 м
[]
+13.1 +7.0 66 +13 +13 1023.1 980.1 +17.0
19 18.09 50 км 10/10 1260 м
[]
+13.0 +6.9 66 1023.5 980.5
20 18.09 55 км 10/10 1380 м
[]
+12.9 +7.1 68 1023.7 980.7
21 18.09 50 км 10/10 1500 м
[]
+12.4 +7.5 72 1023.8 980.7
22 18.09 55 км 10/10 1500 м
[]
+12.0 +8.0 76 1023.8 980.6
23 18.09 45 км 10/10 1500 м
[]
+11.4 +8.5 82 1024.0 980.7
00 19.09 С 1 50 км 8/8 1500 м
[]
+10.9 +8.2 83 +11 +11 1024.1 980.8
01 19.09 50 км 10/10 1500 м
[]
+11.4 +8.7 83 1023.9 980.6
02 19.09 штиль 0 50 км 10/10 1440 м
[]
+11.2 +8.6 84 +11 +11 1023.9 980.6
03 19.09 60 км 10/10 1500 м
[]
+11.8 +6.7 71 1023.8 980.6
04 19.09 60 км 10/10 1500 м
[]
+11.3 +5.6 68 1024.1 980.8
05 19.09 штиль 0 30 км 10/10 1500 м
[]
+11.2 +5.1 66 +11 +11 1024.5 981.2
06 19.09 С 1 14 км 9/9 1200 м
[]
+11.7 +6.1 68 +12 +12 1025.1 981.8 +10.8
07 19.09 45 км 9/9 1200 м
[]
+13.7 +4.8 55 1025.4 982.4
08 19.09 50 км 9/9 1200 м
[]
+13.9 +2.7 47 1025.9 982.9
09 19.09 С 2 45 км 9/9 1200 м
[]
+14.7 +5.0 52 +15 +15 1025.7 982.8
10 19.09 50 км 9/9 1200 м
[]
+15.2 +4.4 48 1025.3 982.5
11 19.09 50 км 9/9 1500 м
[]
+15.7 +2.4 41 1024.8 982.1
12 19.09 С 2 55 км 6/6 1500 м
[]
+16.9 +3.9 42 +17 +21 1024.3 981.8
13 19.09 45 км 5/5 1500 м
[]
+17.6 +4.8 43 1023.9 981.5
14 19.09 В 3 50 км 8/8 1500 м
[]
+16.4 +4.2 44 +16 +17 1024.0 981.4
15 19.09 ЮВ 4 60 км 5/5 1500 м
[]
+15.9 +4.5 47 +15 +16 1024.1 981.5
16 19.09 50 км 8/8 1500 м
[]
+15.2 +5.3 52 1024.5 981.7
17 19.09 60 км 8/8 1500 м
[]
+14.7 +5.6 54 1025.1 982.2
18 19.09 С 2 50 км 9/9 1500 м
[]
+13.4 +5.8 60 +13 +13 1026.1 983.0 +18.1
19 19.09 45 км 9/9 1500 м
[]
+12.2 +6.1 66 1026.9 983.6
20 19.09 50 км 9/9 1500 м
[]
+12.5 +5.2 61 1027.7 984.4
21 19.09 55 км 3/3 1500 м
[]
+10.2 +3.9 65 1028.5 984.8
22 19.09 50 км н/о +8.9 +5.8 81 1028.7 984.8
23 19.09 30 км 4/4 1500 м
[]
+7.6 +5.0 84 1029.2 985.1
00 20.09 С 2 40 км 6/6 1440 м
[]
+8.0 +5.1 82 +6 +6 1029.3 985.3
01 20.09 40 км н/о +6.2 +4.3 88 1029.4 985.1
02 20.09 40 км н/о +5.7 +3.7 87 1029.3 984.9
03 20.09 30 км н/о +5.1 +4.0 93 1029.4 984.9
04 20.09 25 км 6/6 1500 м
[]
+4.6 +3.5 93 1029.4 984.8
05 20.09 35 км местами туман поземный 6/6 30 м
[]
+3.6 +2.8 94 1029.8 985.0
06 20.09 С 1 30 км 6/6 30 м
[]
+6.5 +4.7 88 +5 +6 1029.6 985.3 +3.5
07 20.09 35 км 6/6 1500 м
[]
+9.1 +5.2 77 1029.5 985.6
08 20.09 35 км 5/5 1500 м
[]
+11.4 +5.2 66 1029.3 985.8
09 20.09 16 км 5/5 1500 м
[]
+13.2 +2.8 49 1029.1 985.8
10 20.09 60 км 5/5 1500 м
[]
+14.2 +2.5 45 1028.4 985.3
11 20.09 50 км 3/3 1500 м
[]
+14.9 +2.9 44 1028.0 985.0
12 20.09 50 км 3/3 1500 м
[]
+15.4 +1.3 38 1027.2 984.3
14 20.09 55 км 4/4 1500 м
[]
+16.2 +1.2 36 1026.3 983.6
15 20.09 ЮВ 3 60 км 4/4 1500 м
[]
+16.0 +1.0 36 +16 +17 1026.0 983.3
16 20.09 55 км 4/4 1500 м
[]
+15.6 +2.3 41 1026.1 983.3
17 20.09 70 км 3/0
[]
+13.4 +2.4 47 1026.5 983.4
18 20.09 С 1 65 км 1/0
[]
+11.9 +2.9 54 +12 +12 1027.3 983.9 +16.9
19 20.09 30 км 1/0
[]
+9.9 +4.3 68 1028.0 984.3
20 20.09 35 км ясно +8.7 +4.3 74 1028.4 984.5
21 20.09 40 км ясно +8.0 +4.5 79 1028.6 984.6
22 20.09 40 км н/о +7.1 +4.2 82 1028.8 984.6
23 20.09 45 км н/о +5.9 +3.9 87 1029.1 984.7
00 21.09 35 км н/о +5.2 +3.7 90 1029.2 984.7
01 21.09 45 км н/о +3.8 +2.4 91 1029.3 984.6
02 21.09 35 км н/о +4.3 +3.0 91 1028.9 984.3
03 21.09 27 км н/о +4.3 +3.3 93 1028.7 984.1
04 21.09 40 км местами туман поземный 1/0
[]
+3.6 +2.5 93 1028.6 983.9
05 21.09 35 км 1/0
[]
+2.3 +1.4 94 1028.7 983.8
06 21.09 С 1 35 км 1/1 60 м
[]
+4.9 +3.1 88 +4 +4 1028.4 983.9 +2.0
07 21.09 35 км 1/0
[]
+7.9 +4.7 80 1028.2 984.2
08 21.09 35 км 1/0
[]
+10.5 +5.2 70 1027.7 984.1
09 21.09 45 км 1/0
[]
+13.2 +5.6 60 1026.9 983.8
10 21.09 45 км 1/0
[]
+15.5 +5.7 52 1026.4 983.6
11 21.09 Ю 4 45 км 1/1 1200 м
[]
+15.9 +3.6 44 +15 +21 1025.7 983.0
12 21.09 50 км ясно +17.2 +5.3 45 1024.9 982.4
13 21.09 65 км ясно +17.7 +4.3 41 1024.2 981.8
14 21.09 ЮВ 3 50 км ясно +18.0 +5.1 43 +18 +22 1023.3 981.0
15 21.09 ЮВ 3 60 км ясно +18.0 +5.7 44 +18 +20 1022.9 980.6
16 21.09 ЮВ 4 65 км ясно +16.9 +5.3 46 +16 +17 1022.6 980.2
17 21.09 60 км ясно +14.1 +5.7 57 1022.6 979.8
18 21.09 С 1 45 км ясно +12.8 +4.9 59 +13 +13 1023.1 980.1 +18.7
19 21.09 50 км ясно +12.1 +5.1 62 1023.0 979.9
20 21.09 40 км ясно +10.8 +5.6 70 1023.1 979.8
21 21.09 35 км ясно +8.1 +4.4 77 1023.6 979.8
22 21.09 40 км н/о +8.1 +5.6 84 1023.0 979.3
23 21.09 35 км н/о +7.1 +5.2 88 1022.6 978.7
00 22.09 30 км н/о +5.6 +4.6 93 1022.2 978.1
01 22.09 27 км н/о +4.9 +4.1 95 1022.3 978.1
02 22.09 22 км н/о +5.6 +4.4 92 1021.7 977.6
03 22.09 5000 м н/о +4.1 +3.4 95 1021.3 977.0
04 22.09 27 км н/о +3.9 +3.1 95 1020.8 976.5
05 22.09 28 км н/о +3.9 +3.2 95 1020.7 976.4
06 22.09 С 1 30 км 8/8 30 м
[]
+5.7 +4.4 91 +4 +5 1020.5 976.5 +3.0
07 22.09 35 км 8/8 30 м
[]
+8.4 +5.7 83 1019.9 976.3
08 22.09 45 км 8/0
[]
+11.1 +6.0 71 1018.8 975.7
09 22.09 С 2 35 км 8/0
[]
+12.9 +6.4 65 +12 +17 1018.0 975.2
10 22.09 45 км 8/0
[]
+14.7 +7.5 62 1017.2 974.7
11 22.09 45 км 8/0
[]
+15.1 +7.2 59 1016.5 974.1
12 22.09 С 2 50 км 8/0
[]
+16.0 +7.3 56 +16 +22 1015.5 973.3
13 22.09 55 км 8/0
[]
+16.6 +7.7 56 1015.1 973.0
14 22.09 60 км 8/0
[]
+16.9 +8.2 56 1014.5 972.4
15 22.09 С 1 55 км 8/0
[]
+17.2 +8.0 55 +18 +20 1014.2 972.2
16 22.09 50 км 8/0
[]
+16.8 +8.3 57 1013.9 971.9
17 22.09 45 км 8/0
[]
+16.1 +8.8 62 1013.5 971.4
18 22.09 С 1 40 км 10/0
[]
+13.9 +9.5 75 +14 +14 1013.6 971.2 +17.3
19 22.09 35 км 6/0
[]
+12.6 +9.3 80 1013.5 970.9
20 22.09 30 км н/о +10.8 +8.9 88 1013.6 970.7
21 22.09 15 км н/о +10.5 +9.6 94 1013.3 970.4
22 22.09 6000 м н/о +9.3 +8.5 95 1013.1 970.0
23 22.09 8000 м 6/0
[]
+8.2 +7.6 96 1013.2 969.9
00 23.09 С 1 8000 м 6/0
[]
+8.9 +8.1 95 +8 +8 1013.0 969.8

 

Местоположение метеостанции Грац (Австрия): широта 47.00 долгота 15.43 высота над уровнем моря 347 м.

В архиве по умолчанию представлена погода в Граце за последнюю неделю. Архивные данные за месяц целиком и за предыдущие месяцы, начиная с января 2011 года, Вы можете получить, выбрав интересующий диапазон дат из раскрывающегося списка и нажав кнопку "Ввод!".


*Определитесь, кто Вы:
робот инопланетянин человек

Внимание! Время в таблицах - всемирное. Для получения местного времени необходимо прибавить поправку, которая равна 1 ч.

Смотрите также архив погоды в соседних городах и на ближайших метеорологических станциях:

Погода в Граце университет (Австрия) (13 км)
Погода в Ласницхёэ (Австрия) (14 км)
Погода в Санкт Радегунд бай Грац (Австрия) (19 км)
Погода на Шёкле (Австрия) (22 км)
Погода в Дойчландсберге (Австрия) (25 км)
Погода в Лейбнице (Австрия) (27 км)
Погода в Кёфлаге (Австрия) (28 км)
Погода в Фельбахе (Австрия) (35 км)
Погода в Бад-Глайхенбере (Австрия) (39 км)
Погода в Прайтенеге (Австрия) (39 км)

Пояснения к столбцам:

Ветер - указаны скорость ветра в м/с - средняя за 10 мин, порывы в срок и между сроками (в фигурных скобках) и направление, откуда дует ветер: С - северный, СВ - северо-восточный, В - восточный, ЮВ - юго-восточный, Ю - южный, ЮЗ - юго-западный, З - западный, СЗ - северо-западный.
Видимость - горизонтальная дальность видимости в метрах или километрах. При видимости от 1 до 10 км при отсутствии осадков обычно наблюдается дымка, при ухудшении видимости до 1 км и менее - туман. В сухую погоду видимость может ухудшаться дымом, пылью или мглою.
Явления - указаны атмосферные явления, наблюдавшиеся в срок или в последний час перед сроком; фигурными скобками обозначены явления, наблюдавшиеся между сроками (за 1-3 часа до срока); квадратными скобками обозначены град или гололедные отложения с указанием их диаметра в мм.
Облачность - указаны через наклонную черту общая и нижняя облачность в баллах и высота нижней границы облаков в метрах; квадратными скобками обозначены формы облаков: Ci - перистые, Cs - перисто-слоистые, Cc - перисто-кучевые, Ac - высококучевые, As - высокослоистые, Sc - слоисто-кучевые, Ns - слоисто-дождевые, Cu - кучевые, Cb - кучево-дождевые. Подробнее классификацию облаков см. в Атласе облаков (PDF).
T - Температура воздуха - температура, измеренная на высоте 2 м над землей.
Td - Температура точки росы - температура, при понижении до которой содержащийся в воздухе водяной пар достигнет насыщения.
f - Относительная влажность воздуха - влажноcть воздуха, измеренная на высоте 2 м над землей.
Te - Эффективная температура - температура, которую ощущает одетый по сезону человек в тени. Характеристика душности погоды. При расчете учитывается влияние влажности воздуха и скорости ветра на теплоощущения человека.
Tes - Эффективная температура на солнце - температура, которую ощущает человек, с поправкой на солнечный нагрев. Характеристика знойности погоды. Зависит от высоты солнца над горизонтом, облачности и скорости ветра. Ночью, в пасмурную погоду, а также при ветре 12 м/с и более поправка равна нулю.
P - Атмосферное давление - приведенное к уровню моря атмосферное давление.
Po - Атмосферное давление - измеренное на уровне метеостанции атмосферное давление.
Tmin - Минимальная температура - минимум температуры воздуха на высоте 2 м над землей.
Tmax - Максимальная температура - максимум температуры воздуха на высоте 2 м над землей.
R - Количество осадков - Количество выпавших осадков за период времени, мм. При наведении курсора мыши на число - период времени, за который выпало указанное количество осадков.
R24 - Количество осадков - Количество выпавших осадков за 24 часа, мм.
S - Снежный покров - Высота снежного покрова, см. При наведении курсора мыши на число - состояние снежного покрова и степень покрытия местности в баллах.